User: anonymous   Login
Location: Unspecified
(0.0000°N, 0.0000°E)
Time: 21:03:47
(UTC+00:00)
Language:

STARLINK-6314 - Orbit

View from above orbital plane
View from above orbital plane
View from above satellite
View from above satellite

Ground track
Ground track

The orbit is defined by the following mean orbital elements,

1 56538U          26145.63580233 +.00000000 +00000-0 +73643-5 0 00006
2 56538  43.0004 123.5464 0000961 268.8950  91.1791 15.27573961    03
Epoch (UTC): 25 May 2026 15:15:33
Eccentricity: 0.0000961
inclination: 43.0004°
perigee height: 482 km
apogee height: 484 km
right ascension of ascending node: 123.5464°
argument of perigee: 268.8950°
revolutions per day: 15.27573961
mean anomaly at epoch: 91.1791°

The dashed part of the orbit path shows where the satellite is in the earth's shadow,  

DLR